Location: Ammerl�gen
(47.2167°N, 9.6000°E)
Time: 04:44:06
(UTC+00:00)

NOAA 19 - Pass Details

Date: 06 December 2021
Orbit: 841 x 860 km, 99.2° (Epoch: 16 January)

Event Time Altitude Azimuth Distance (km) Brightness Sun altitude
Rises 18:09:28 0° 171° (S) 3,383 8.3 -25.8°
Reaches altitude 10° 18:11:50 10° 173° (S) 2,454 7.6 -26.2°
Maximum altitude 18:17:15 68° 257° (WSW) 907 5.4 -27.1°
Drops below altitude 10° 18:22:44 10° 340° (NNW) 2,479 7.8 -28.0°
Sets 18:25:08 0° 343° (NNW) 3,422 8.5 -28.4°
